Weather in Komissarovo

Russia / Orenburg Oblast     52°17′14″N   54°49′00″E
temp.,
°C
wind,
m/s
gust,
m/s
humid.,
%
clouds,
%
prec.,
mm/h
press.,
hPa
HPBL,
m
27 february, sat
sat2723:00−18se61298100 0.1 1019302
02:00−16sse71396100 0.1 1016374
05:00−14sse101695100 0.8 1011491
08:00−12sse91695100 4.9 1006593
11:00−9sse81394100 6.5 1004497
14:00−5sse5996100 0.8 1002303
17:00−1ssw2698100 1.7 1001276
20:000sw5997100 0.2 1001501
28 february, sun
sun2823:000sw4898100 1.2 1000427
02:00−1sw5996100 0.3 999509
05:00−2sw51097100 0.9 998511
08:00−3sw499797 0.4 999340
11:00−5wsw6109396 0.7 1000300
14:00−7w589492 0.0 1002300
17:00−8wnw6109396 0.1 1005365
20:00−11wnw599599 0.1 1008251
1 march, mon
mon123:00−12wnw379597 0.1 1011207
02:00−14wnw359694 0.3 1012121
05:00−15wnw369689 0.4 1014143
08:00−16wnw359696 0.1 1016124
11:00−15nw359494 0.3 1018233
14:00−13nw359385 0.1 1019295
17:00−14nw469491 0.1 1020292
20:00−18wnw349887 0.0 102166
2 march, tue
tue223:00−21nw339985 0.1 102224
02:00−22wnw239931 0.0 102220
05:00−23wnw239928 0.0 102220
08:00−24w2210024 0.0 102220
11:00−20sw239628 0.0 1021126
14:00−18ssw469423 0.0 1020255
17:00−17ssw699651 0.0 1017312
20:00−17s71196100 0.1 1016319
3 march, wed
wed323:00−14s61195100 0.4 1013345
02:00−10s61395100 0.8 1009460
05:00−5s71395100 1.6 1006635
08:00−3ssw71495100 1.1 1004698
11:00−2ssw71295100 1.8 1002740
14:00−1ssw61094100 0.4 1002710
17:00−1sw5895100 1.1 1001595
20:00−4w51095100 0.3 1002369